KG6SIB Weather Reports


Display with metric or nautical units.
time (UTC)temp
F
wind
direction
speed
MPH
gust
MPH
rain 1hr
in
rain 24hr
in
rain mn
in
humidity
%
barometer
mb
20260903232251 80 234 5.0 10.0 0.00 0.00 0.00 41 1014.6
20260903231751 79 226 3.0 10.0 0.00 0.00 0.00 41 1014.5
20260903231251 79 263 2.0 13.0 0.00 0.00 0.00 42 1014.5
20260903230751 79 244 5.0 13.0 0.00 0.00 0.00 41 1014.5
20260903230251 80 240 11.0 12.0 0.00 0.00 0.00 40 1014.7
20260903225751 80 239 9.0 12.0 0.00 0.00 0.00 40 1014.8
20260903225251 80 248 7.0 12.0 0.00 0.00 0.00 39 1014.9
20260903224751 81 242 12.0 15.0 0.00 0.00 0.00 38 1015.0
20260903224250 80 252 3.0 15.0 0.00 0.00 0.00 39 1015.0
20260903223751 80 195 2.0 15.0 0.00 0.00 0.00 39 1015.0
20260903223251 81 252 10.0 15.0 0.00 0.00 0.00 37 1015.0
20260903222750 82 244 7.0 14.0 0.00 0.00 0.00 37 1015.4
20260903222250 82 242 4.0 14.0 0.00 0.00 0.00 37 1015.5
20260903221751 82 252 1.0 14.0 0.00 0.00 0.00 37 1015.6
20260903220750 81 233 4.0 12.0 0.00 0.00 0.00 37 1015.3
20260903220250 82 243 9.0 11.0 0.00 0.00 0.00 35 1015.5
20260903215750 83 243 5.0 15.0 0.00 0.00 0.00 33 1015.6
20260903215250 83 213 2.0 15.0 0.00 0.00 0.00 34 1015.7
20260903214750 84 232 14.0 15.0 0.00 0.00 0.00 32 1015.6
20260903214250 84 236 1.0 13.0 0.00 0.00 0.00 30 1015.6
20260903213750 84 196 4.0 16.0 0.00 0.00 0.00 28 1015.6
20260903213239 84 227 10.0 16.0 0.00 0.00 0.00 26 1015.7
20260903212749 85 215 3.0 13.0 0.00 0.00 0.00 25 1015.8
20260903212250 84 220 3.0 15.0 0.00 0.00 0.00 23 1015.6
20260903211750 84 232 4.0 15.0 0.00 0.00 0.00 22 1015.6
20260903211249 85 240 12.0 15.0 0.00 0.00 0.00 21 1015.9
20260903210249 85 251 10.0 14.0 0.00 0.00 0.00 21 1015.8
20260903205750 84 273 3.0 12.0 0.00 0.00 0.00 22 1015.8
20260903204249 84 253 0.0 15.0 0.00 0.00 0.00 21 1015.8
20260903203750 85 220 3.0 14.0 0.00 0.00 0.00 20 1016.0
20260903203249 85 254 9.0 14.0 0.00 0.00 0.00 20 1016.1
20260903202749 86 236 3.0 13.0 0.00 0.00 0.00 20 1015.9
20260903202249 85 238 5.0 15.0 0.00 0.00 0.00 20 1016.0
20260903201738 84 223 3.0 15.0 0.00 0.00 0.00 20 1016.0
20260903201249 84 171 5.0 10.0 0.00 0.00 0.00 17 1015.9
20260903200749 85 228 3.0 12.0 0.00 0.00 0.00 17 1016.2
20260903200249 85 240 9.0 13.0 0.00 0.00 0.00 18 1016.2
20260903195749 84 205 4.0 13.0 0.00 0.00 0.00 18 1016.3
20260903195249 84 246 8.0 11.0 0.00 0.00 0.00 17 1016.4
20260903194738 84 202 1.0 11.0 0.00 0.00 0.00 18 1016.5
20260903194248 83 253 4.0 13.0 0.00 0.00 0.00 18 1016.3
20260903193749 83 185 4.0 13.0 0.00 0.00 0.00 20 1016.4
20260903193248 83 225 2.0 12.0 0.00 0.00 0.00 20 1016.5
20260903192748 83 250 8.0 12.0 0.00 0.00 0.00 22 1016.5
20260903191249 83 229 5.0 13.0 0.00 0.00 0.00 18 1016.5
20260903190748 83 266 2.0 13.0 0.00 0.00 0.00 19 1016.6
20260903185748 81 265 13.0 14.0 0.00 0.00 0.00 20 1016.6
20260903185248 81 231 10.0 14.0 0.00 0.00 0.00 19 1016.6
20260903184748 82 223 6.0 10.0 0.00 0.00 0.00 20 1016.9
20260903184247 82 232 6.0 11.0 0.00 0.00 0.00 19 1017.1
20260903183747 82 248 5.0 12.0 0.00 0.00 0.00 19 1017.1
20260903183247 82 242 3.0 12.0 0.00 0.00 0.00 20 1017.1
20260903181248 80 360 2.0 11.0 0.00 0.00 0.00 19 1017.0
20260903180247 80 246 4.0 8.0 0.00 0.00 0.00 18 1017.0
20260903175247 79 203 2.0 11.0 0.00 0.00 0.00 19 1017.0
20260903174747 79 259 7.0 11.0 0.00 0.00 0.00 19 1017.0
20260903174247 78 279 6.0 9.0 0.00 0.00 0.00 19 1016.8
20260903173747 79 267 4.0 9.0 0.00 0.00 0.00 19 1017.2
20260903172735 78 250 1.0 10.0 0.00 0.00 0.00 21 1017.0
20260903172246 78 241 3.0 8.0 0.00 0.00 0.00 21 1016.9
20260903171747 78 223 5.0 8.0 0.00 0.00 0.00 21 1016.9
20260903171246 78 267 0.0 8.0 0.00 0.00 0.00 21 1016.9
20260903170246 77 227 2.0 7.0 0.00 0.00 0.00 21 1016.8
20260903165746 76 236 1.0 8.0 0.00 0.00 0.00 22 1016.8
20260903163746 74 242 2.0 9.0 0.00 0.00 0.00 21 1016.5
20260903163235 75 237 3.0 8.0 0.00 0.00 0.00 24 1016.7
20260903162746 75 243 4.0 9.0 0.00 0.00 0.00 24 1016.7
20260903162246 75 254 3.0 9.0 0.00 0.00 0.00 23 1016.8
20260903161746 75 265 2.0 6.0 0.00 0.00 0.00 23 1016.8
20260903161246 74 212 3.0 6.0 0.00 0.00 0.00 26 1016.6
20260903160746 74 250 2.0 6.0 0.00 0.00 0.00 25 1016.7
20260903160246 74 250 2.0 6.0 0.00 0.00 0.00 26 1016.6
20260903155745 73 242 0.0 5.0 0.00 0.00 0.00 25 1016.9
20260903154746 72 187 2.0 4.0 0.00 0.00 0.00 24 1016.7
20260903154246 72 177 1.0 4.0 0.00 0.00 0.00 22 1016.7
20260903153746 71 130 0.0 2.0 0.00 0.00 0.00 21 1016.6
20260903152734 70 77 0.0 0.0 0.00 0.00 0.00 17 1016.4
20260903152246 69 74 0.0 0.0 0.00 0.00 0.00 18 1016.3
20260903151745 68 74 0.0 0.0 0.00 0.00 0.00 19 1016.3
20260903151245 66 74 0.0 3.0 0.00 0.00 0.00 19 1016.2
20260903150745 65 74 0.0 4.0 0.00 0.00 0.00 20 1015.8
20260903150245 63 74 1.0 7.0 0.00 0.00 0.00 23 1015.7
20260903145745 61 73 3.0 7.0 0.00 0.00 0.00 25 1016.3
20260903145245 59 61 2.0 6.0 0.00 0.00 0.00 26 1016.0
20260903144745 58 83 2.0 8.0 0.00 0.00 0.00 27 1015.7
20260903143745 55 51 4.0 6.0 0.00 0.00 0.00 31 1015.6
20260903143244 53 64 3.0 6.0 0.00 0.00 0.00 31 1015.2
20260903142744 51 57 3.0 8.0 0.00 0.00 0.00 31 1014.9
20260903142245 50 53 4.0 8.0 0.00 0.00 0.00 31 1014.7
20260903141745 48 77 5.0 9.0 0.00 0.00 0.00 33 1014.3
20260903141245 47 69 6.0 9.0 0.00 0.00 0.00 33 1014.3
20260903140244 46 68 5.0 8.0 0.00 0.00 0.00 34 1013.8
20260903135744 46 41 5.0 8.0 0.00 0.00 0.00 33 1014.9
20260903134744 45 38 5.0 8.0 0.00 0.00 0.00 32 1014.6
20260903134244 45 51 4.0 8.0 0.00 0.00 0.00 33 1014.6
20260903133744 45 73 5.0 8.0 0.00 0.00 0.00 32 1014.6
20260903132744 45 40 6.0 9.0 0.00 0.00 0.00 32 1014.5
20260903132244 45 55 6.0 9.0 0.00 0.00 0.00 31 1014.6
20260903131744 45 61 6.0 8.0 0.00 0.00 0.00 32 1014.5
20260903131244 45 57 5.0 8.0 0.00 0.00 0.00 32 1014.6
20260903130243 45 38 6.0 9.0 0.00 0.00 0.00 31 1014.4
20260903125244 45 17 4.0 8.0 0.00 0.00 0.00 31 1015.1
20260903124744 45 36 6.0 9.0 0.00 0.00 0.00 32 1015.0
20260903124243 45 63 5.0 9.0 0.00 0.00 0.00 31 1014.8
20260903123744 45 59 6.0 9.0 0.00 0.00 0.00 31 1014.9
20260903123243 45 38 6.0 9.0 0.00 0.00 0.00 30 1014.9
20260903122243 45 29 6.0 8.0 0.00 0.00 0.00 30 1014.7
20260903121743 45 51 6.0 8.0 0.00 0.00 0.00 31 1014.9
20260903121243 46 43 4.0 8.0 0.00 0.00 0.00 31 1015.0
20260903115743 46 37 5.0 9.0 0.00 0.00 0.00 33 1015.4
20260903115243 46 59 6.0 9.0 0.00 0.00 0.00 33 1015.5
20260903114743 46 54 6.0 8.0 0.00 0.00 0.00 33 1015.6
20260903114242 46 49 5.0 8.0 0.00 0.00 0.00 33 1015.5
20260903113743 46 64 5.0 8.0 0.00 0.00 0.00 33 1015.5
20260903113243 46 28 6.0 8.0 0.00 0.00 0.00 32 1015.5
20260903112242 46 39 6.0 8.0 0.00 0.00 0.00 31 1015.5
20260903111742 46 41 6.0 9.0 0.00 0.00 0.00 30 1015.5
20260903111243 47 46 7.0 9.0 0.00 0.00 0.00 30 1015.5
20260903110742 46 47 4.0 9.0 0.00 0.00 0.00 29 1015.5
20260903105242 46 59 6.0 9.0 0.00 0.00 0.00 27 1016.1
20260903104742 46 60 6.0 9.0 0.00 0.00 0.00 27 1016.1
20260903103742 46 65 6.0 9.0 0.00 0.00 0.00 26 1016.1
20260903103242 46 57 5.0 9.0 0.00 0.00 0.00 25 1016.1
20260903102742 46 51 6.0 8.0 0.00 0.00 0.00 25 1016.2
20260903102242 45 69 6.0 8.0 0.00 0.00 0.00 25 1015.9
20260903101742 45 50 6.0 7.0 0.00 0.00 0.00 25 1015.9
20260903101242 45 40 6.0 8.0 0.00 0.00 0.00 25 1016.0
20260903100742 45 30 5.0 8.0 0.00 0.00 0.00 25 1016.1
20260903100242 45 57 4.0 8.0 0.00 0.00 0.00 25 1016.0
20260903095742 46 41 5.0 8.0 0.00 0.00 0.00 25 1016.5
20260903095242 46 72 5.0 8.0 0.00 0.00 0.00 24 1016.6
20260903094741 46 45 5.0 8.0 0.00 0.00 0.00 24 1016.7
20260903094242 46 39 5.0 9.0 0.00 0.00 0.00 24 1016.6
20260903093741 46 61 4.0 9.0 0.00 0.00 0.00 24 1016.7
20260903093242 46 48 5.0 8.0 0.00 0.00 0.00 24 1016.8
20260903092741 46 38 4.0 9.0 0.00 0.00 0.00 25 1016.8
20260903092241 46 32 6.0 9.0 0.00 0.00 0.00 25 1016.9
20260903091241 46 59 5.0 8.0 0.00 0.00 0.00 25 1017.0
20260903090741 46 30 6.0 7.0 0.00 0.00 0.00 25 1017.1
20260903085741 47 63 5.0 8.0 0.00 0.00 0.00 26 1017.3
20260903085241 47 51 6.0 8.0 0.00 0.00 0.00 26 1017.3
20260903084741 47 80 3.0 8.0 0.00 0.00 0.00 26 1017.3
20260903084240 48 67 5.0 9.0 0.00 0.00 0.00 27 1017.3
20260903083741 48 76 5.0 9.0 0.00 0.00 0.00 27 1017.4
20260903083241 48 75 5.0 8.0 0.00 0.00 0.00 28 1017.5
20260903081740 47 76 5.0 9.0 0.00 0.00 0.00 30 1017.7
20260903080240 48 49 4.0 9.0 0.00 0.00 0.00 32 1017.7
20260903075240 48 92 4.0 10.0 0.00 0.00 0.00 31 1017.8
20260903074740 48 53 5.0 10.0 0.00 0.00 0.00 30 1017.6
20260903074240 48 45 6.0 9.0 0.00 0.00 0.00 31 1017.8
20260903073740 48 53 7.0 9.0 0.00 0.00 0.00 32 1017.8
20260903073240 48 65 6.0 9.0 0.00 0.00 0.00 31 1017.8
20260903072739 48 65 6.0 9.0 0.00 0.00 0.00 32 1017.8
20260903071739 48 71 8.0 8.0 0.00 0.00 0.00 32 1017.8
20260903071239 48 53 5.0 8.0 0.00 0.00 0.00 33 1017.8
20260903070739 48 80 5.0 8.0 0.00 0.00 0.00 33 1017.7
20260903070239 48 69 2.0 8.0 0.00 0.00 0.00 33 1017.7
20260903065740 48 62 3.0 8.0 0.00 0.00 0.00 33 1017.5
20260903065239 48 90 7.0 8.0 0.00 0.00 0.00 34 1017.4
20260903064739 48 57 4.0 8.0 0.00 0.00 0.00 35 1017.4
20260903063239 49 54 4.0 7.0 0.00 0.00 0.00 35 1017.5
20260903062739 49 46 5.0 7.0 0.00 0.00 0.00 34 1017.4
20260903062239 49 77 7.0 8.0 0.00 0.00 0.00 34 1017.4
20260903060240 49 57 3.0 8.0 0.00 0.00 0.00 32 1017.3
20260903055739 50 48 3.0 7.0 0.00 0.00 0.00 33 1017.5
20260903055239 50 42 4.0 6.0 0.00 0.00 0.00 33 1017.6
20260903054739 50 59 4.0 8.0 0.00 0.00 0.00 33 1017.7
20260903054238 50 65 4.0 8.0 0.00 0.00 0.00 34 1017.8
20260903053738 50 51 4.0 7.0 0.00 0.00 0.00 34 1017.8
20260903053238 50 74 3.0 7.0 0.00 0.00 0.00 35 1017.9
20260903052238 51 78 4.0 8.0 0.00 0.00 0.00 35 1017.8
20260903051727 51 58 2.0 9.0 0.00 0.00 0.00 35 1017.9
20260903051238 51 69 4.0 9.0 0.00 0.00 0.00 36 1017.8
20260903050238 52 57 4.0 8.0 0.00 0.00 0.00 38 1018.0
20260903045738 52 76 7.0 8.0 0.00 0.00 0.00 39 1017.5
20260903045238 52 69 3.0 8.0 0.00 0.00 0.00 40 1017.7
20260903044737 53 63 4.0 8.0 0.00 0.00 0.00 41 1017.9
20260903044238 53 59 4.0 7.0 0.00 0.00 0.00 43 1017.8
20260903043737 53 65 5.0 7.0 0.00 0.00 0.00 45 1017.8
20260903043237 53 65 4.0 7.0 0.00 0.00 0.00 45 1017.8
20260903042737 53 36 4.0 7.0 0.00 0.00 0.00 48 1017.8
20260903042237 53 75 4.0 6.0 0.00 0.00 0.00 47 1017.7
20260903041738 53 53 4.0 6.0 0.00 0.00 0.00 49 1017.6
20260903040737 54 53 2.0 7.0 0.00 0.00 0.00 48 1017.6
20260903040237 54 71 4.0 7.0 0.00 0.00 0.00 50 1017.5
20260903035737 54 83 3.0 7.0 0.00 0.00 0.00 51 1017.2
20260903035237 55 77 5.0 8.0 0.00 0.00 0.00 53 1017.4
20260903034237 55 65 4.0 7.0 0.00 0.00 0.00 57 1017.4
20260903033737 56 44 4.0 6.0 0.00 0.00 0.00 55 1017.4
20260903033237 56 40 4.0 6.0 0.00 0.00 0.00 59 1017.4
20260903032237 57 60 6.0 6.0 0.00 0.00 0.00 59 1017.6
20260903031737 58 61 3.0 5.0 0.00 0.00 0.00 58 1017.6
20260903031237 58 38 3.0 5.0 0.00 0.00 0.00 58 1017.6
20260903030737 59 59 3.0 5.0 0.00 0.00 0.00 58 1017.6
20260903030236 59 53 3.0 5.0 0.00 0.00 0.00 59 1017.5
20260903025737 60 47 4.0 4.0 0.00 0.00 0.00 59 1016.3
20260903025236 61 51 1.0 5.0 0.00 0.00 0.00 60 1016.4
20260903024737 61 74 4.0 5.0 0.00 0.00 0.00 60 1016.4
20260903024236 62 54 1.0 4.0 0.00 0.00 0.00 60 1016.6
20260903023737 63 317 2.0 3.0 0.00 0.00 0.00 59 1016.6
20260903023236 63 249 1.0 2.0 0.00 0.00 0.00 57 1016.6
20260903022736 64 249 0.0 1.0 0.00 0.00 0.00 56 1016.7
20260903022236 65 249 0.0 0.0 0.00 0.00 0.00 55 1016.7
20260903021736 66 249 0.0 0.0 0.00 0.00 0.00 55 1017.0
20260903020736 67 249 0.0 3.0 0.00 0.00 0.00 54 1017.0
20260903020236 68 249 0.0 5.0 0.00 0.00 0.00 54 1017.2
20260903015236 69 248 2.0 7.0 0.00 0.00 0.00 54 1015.6
20260903014736 69 246 3.0 7.0 0.00 0.00 0.00 53 1015.6
20260903014235 70 234 5.0 7.0 0.00 0.00 0.00 52 1015.8
20260903013736 70 240 1.0 5.0 0.00 0.00 0.00 51 1015.7
20260903012735 71 234 0.0 8.0 0.00 0.00 0.00 48 1015.9
20260903012235 72 239 6.0 8.0 0.00 0.00 0.00 48 1016.1
20260903011236 73 226 1.0 8.0 0.00 0.00 0.00 46 1016.2
20260903010735 73 245 7.0 10.0 0.00 0.00 0.00 45 1016.1
20260903005235 74 223 1.0 9.0 0.00 0.00 0.00 44 1016.3
20260903004235 75 236 2.0 7.0 0.00 0.00 0.00 42 1016.2
20260903003235 76 180 4.0 8.0 0.00 0.00 0.00 41 1016.5
20260903002735 76 249 1.0 10.0 0.00 0.00 0.00 41 1016.5
20260903001735 77 232 5.0 11.0 0.00 0.00 0.00 39 1016.4
20260903001235 77 219 9.0 11.0 0.00 0.00 0.00 38 1016.4
20260903000234 78 250 8.0 8.0 0.00 0.00 0.00 37 1016.6
20260902235735 79 248 5.0 10.0 0.00 0.00 0.00 37 1016.6
20260902235235 79 224 2.0 12.0 0.00 0.00 0.00 36 1016.7
20260902234725 80 218 5.0 12.0 0.00 0.00 0.00 35 1016.9
20260902234235 81 229 5.0 11.0 0.00 0.00 0.00 34 1016.8
20260902233734 81 257 2.0 12.0 0.00 0.00 0.00 33 1016.9
20260902233235 81 234 9.0 12.0 0.00 0.00 0.00 32 1016.8